Lebanon, NH

5:10 AM EDT on July 25, 2017 (GMT -0400)
Lebanon Municipal

Weather History for KLEB - October, 2013

Change the Weather History Date:

Monday, October 7, 2013

  Actual Average Record
Temperature  
Mean Temperature 60 °F -  
Max Temperature 72 °F 61 °F 87 °F (1963)
Min Temperature 50 °F 39 °F 24 °F (1984)
Degree Days  
Heating Degree Days 4    
Growing Degree Days 10 (Base 50)    
Moisture  
Dew Point 54 °F    
Average Humidity 88    
Maximum Humidity 94    
Minimum Humidity 67    
Precipitation  
Precipitation 0.46 in - - ()
Sea Level Pressure  
Sea Level Pressure 29.91 in    
Wind  
Wind Speed 3 mph (SSW)    
Max Wind Speed 28 mph    
Max Gust Speed 39 mph    
Visibility 7 miles    
Events Fog , Rain    
Averages and records for this station are not official NWS values.
T = Trace of Precipitation, MM = Missing Value Source: NWS Daily Summary

Daily Weather History Graph

Daily Weather History Graph

Search for Another Location

Airport or City:

Trip Planner

Search our weather history database for the weather conditions in past years. The results will help you decide how hot, cold, wet, or windy it might be!

Date:

Astronomy

Oct. 07, 2013 Rise Set
Actual Time 6:54 AM EDT 6:19 PM EDT
Civil Twilight 6:25 AM EDT 6:47 PM EDT
Nautical Twilight 5:52 AM EDT 7:20 PM EDT
Astronomical Twilight 5:18 AM EDT 7:54 PM EDT
Moon 9:46 AM EDT (10/7) 7:55 PM EDT (10/7)
Length of Visible Light 12h 22m
Length of Day
11h 25m
Waxing Crescent, 8% of the Moon is Illuminated
Oct 7
Waxing Crescent
Oct 11
First Quarter
Oct 18
Full
Oct 26
Last Quarter
Nov 3
New

Hourly Weather History & Observations

Time (EDT) Temp. Dew Point Humidity Pressure Visibility Wind Dir Wind Speed Gust Speed Precip Events Conditions
12:12 AM 51.8 °F 48.2 °F 88% 30.12 in 10.0 mi Calm Calm - N/A   Overcast
12:53 AM 52.0 °F 50.0 °F 93% 30.11 in 10.0 mi Calm Calm - N/A   Overcast
1:12 AM 51.8 °F 50.0 °F 94% 30.10 in 7.0 mi Calm Calm - N/A   Overcast
1:53 AM 52.0 °F 50.0 °F 93% 30.09 in 5.0 mi Calm Calm - N/A   Overcast
2:04 AM 51.8 °F 50.0 °F 94% 30.09 in 6.0 mi Calm Calm - N/A   Overcast
2:19 AM 51.8 °F 50.0 °F 94% 30.09 in 7.0 mi Calm Calm - N/A   Overcast
2:53 AM 52.0 °F 50.0 °F 93% 30.07 in 3.0 mi Calm Calm - N/A   Overcast
3:25 AM 53.6 °F 50.0 °F 88% 30.05 in 2.0 mi Calm Calm - N/A   Overcast
3:37 AM 51.8 °F 50.0 °F 94% 30.05 in 5.0 mi Calm Calm - N/A   Overcast
3:53 AM 53.1 °F 50.0 °F 89% 30.05 in 4.0 mi Calm Calm - N/A   Overcast
4:38 AM 53.6 °F 50.0 °F 88% 30.04 in 4.0 mi Calm Calm - N/A   Overcast
4:53 AM 53.1 °F 51.1 °F 93% 30.04 in 4.0 mi Calm Calm - N/A   Overcast
5:04 AM 53.6 °F 51.8 °F 94% 30.03 in 4.0 mi Calm Calm - N/A   Overcast
5:20 AM 53.6 °F 50.0 °F 88% 30.03 in 3.0 mi Calm Calm - 0.01 in   Overcast
5:53 AM 53.1 °F 51.1 °F 93% 30.02 in 6.0 mi Calm Calm - 0.01 in   Overcast
6:03 AM 53.6 °F 51.8 °F 94% 30.02 in 9.0 mi Calm Calm - N/A   Overcast
6:29 AM 53.6 °F 51.8 °F 94% 30.01 in 10.0 mi Calm Calm - N/A   Overcast
6:53 AM 53.1 °F 51.1 °F 93% 30.01 in 3.0 mi Calm Calm - N/A   Overcast
7:07 AM 53.6 °F 51.8 °F 94% 30.01 in 7.0 mi Calm Calm - N/A   Overcast
7:53 AM 54.0 °F 52.0 °F 93% 29.99 in 7.0 mi Calm Calm - N/A   Overcast
8:09 AM 53.6 °F 51.8 °F 94% 29.99 in 9.0 mi Calm Calm - N/A   Overcast
8:37 AM 55.4 °F 51.8 °F 88% 29.98 in 9.0 mi Calm Calm - N/A   Overcast
8:53 AM 55.0 °F 53.1 °F 93% 29.97 in 10.0 mi Calm Calm - N/A   Overcast
9:53 AM 55.9 °F 53.1 °F 90% 29.96 in 10.0 mi Calm Calm - 0.00 in   Overcast
10:49 AM 57.2 °F 53.6 °F 88% 29.92 in 2.0 mi Calm Calm - 0.02 in Rain Light Rain
10:53 AM 57.0 °F 54.0 °F 89% 29.92 in 1.8 mi WSW 3.5 mph - 0.02 in Rain Light Rain
10:58 AM 57.2 °F 53.6 °F 88% 29.92 in 3.0 mi West 3.5 mph - 0.00 in Rain Light Rain
11:14 AM 57.2 °F 55.4 °F 94% 29.91 in 10.0 mi Calm Calm - 0.00 in   Overcast
11:53 AM 64.0 °F 59.0 °F 84% 29.87 in 10.0 mi South 5.8 mph - 0.00 in   Overcast
12:15 PM 60.8 °F 59.0 °F 94% 29.87 in 8.0 mi Calm Calm - N/A   Overcast
12:53 PM 62.1 °F 59.0 °F 90% 29.83 in 6.0 mi Calm Calm - 0.00 in Rain Light Rain
1:53 PM 66.0 °F 61.0 °F 84% 29.76 in 10.0 mi Variable 3.5 mph - 0.00 in   Overcast
2:33 PM 69.8 °F 60.8 °F 73% 29.74 in 10.0 mi Variable 4.6 mph 17.3 mph N/A   Overcast
2:53 PM 68.0 °F 62.1 °F 81% 29.71 in 6.0 mi South 9.2 mph - 0.01 in Rain Light Rain
3:53 PM 70.0 °F 62.1 °F 76% 29.67 in 10.0 mi SSE 10.4 mph 18.4 mph 0.00 in   Overcast
4:53 PM 70.0 °F 64.0 °F 81% 29.67 in 10.0 mi South 21.9 mph 27.6 mph 0.00 in   Overcast
5:06 PM 68.0 °F 62.6 °F 83% 29.74 in 1.5 mi WSW 27.6 mph 39.1 mph 0.09 in Rain Rain
5:13 PM 66.2 °F 60.8 °F 83% 29.71 in 0.2 mi South 23.0 mph 39.1 mph 0.34 in Rain Heavy Rain
5:16 PM 66.2 °F 62.6 °F 88% 29.71 in 0.5 mi South 21.9 mph 36.8 mph 0.36 in Fog , Rain Heavy Rain
5:21 PM 66.2 °F 60.8 °F 83% 29.71 in 2.5 mi South 15.0 mph 34.5 mph 0.36 in Rain Light Rain
5:29 PM 64.4 °F 60.8 °F 88% 29.70 in 7.0 mi South 8.1 mph - 0.37 in Rain Light Rain
5:53 PM 64.9 °F 61.0 °F 87% 29.70 in 10.0 mi South 12.7 mph - 0.37 in   Mostly Cloudy
6:36 PM 64.4 °F 60.8 °F 88% 29.75 in 6.0 mi SSW 13.8 mph 19.6 mph 0.05 in Rain Light Rain
6:43 PM 64.4 °F 59.0 °F 83% 29.77 in 10.0 mi SSW 13.8 mph - 0.05 in Rain Light Rain
6:53 PM 64.0 °F 57.0 °F 78% 29.77 in 10.0 mi SSW 12.7 mph - 0.05 in   Overcast
7:53 PM 62.1 °F 54.0 °F 75% 29.81 in 10.0 mi SSW 10.4 mph - N/A   Overcast
8:53 PM 60.1 °F 54.0 °F 80% 29.83 in 10.0 mi South 10.4 mph - 0.00 in   Overcast
9:53 PM 59.0 °F 48.0 °F 67% 29.86 in 10.0 mi SSW 6.9 mph - N/A   Overcast
10:53 PM 54.0 °F 46.9 °F 77% 29.89 in 10.0 mi South 3.5 mph - N/A   Partly Cloudy
11:53 PM 50.0 °F 46.9 °F 89% 29.90 in 10.0 mi South 4.6 mph - N/A   Partly Cloudy